User: anonymous   Login
Location: Unspecified
(48.8656°N, 0.0000°E)
Time: 10:48:51
(UTC+00:00)
Language:

Vanguard 1 - Orbit

View from above orbital plane
View from above orbital plane
View from above satellite
View from above satellite

Ground track
Ground track

The orbit data is extracted from the following two-line orbital elements,

1     5U 58002B   19169.36004974 +.00000001 +00000-0 +51730-5 0  9991
2     5 034.2436 272.8228 1841893 149.5633 222.6143 10.84762254165602
Epoch (UTC): 18 June 2019 08:38:28
Eccentricity: 0.1841893
inclination: 34.2436°
perigee height: 654 km
apogee height: 3829 km
right ascension of ascending node: 272.8228°
argument of perigee: 149.5633°
revolutions per day: 10.84762254
mean anomaly at epoch: 222.6143°
orbit number at epoch: 16560

The dashed part of the orbit path shows where the satellite is in the earth's shadow,  

DLR